owner,sensor,date,latitude,longitude,vertical_datum,wind_speed,wind_to_direction,wind_speed_of_gust,qcFlag 
TABS,ioos:station:wmo:42043:1,2007-12-01T00:00:00Z,28.9818,-94.9186,4.0,7.475486606,104.7244437,9.22,'11111222,11111222,11111222' 
TABS,ioos:station:wmo:42043:1,2007-12-01T00:30:00Z,28.9818,-94.9186,4.0,7.405248139,104.7872685,9.05,'11111222,11111222,11111222' 
TABS,ioos:station:wmo:42043:1,2007-12-01T01:00:00Z,28.9818,-94.9186,4.0,7.45794878,109.5043325,10.18,'11111222,11111222,11111222' 
TABS,ioos:station:wmo:42043:1,2007-12-01T01:30:00Z,28.9818,-94.9186,4.0,8.068116261,109.4010183,10.37,'11111222,11111222,11111222' 
TABS,ioos:station:wmo:42043:1,2007-12-01T02:00:00Z,28.9818,-94.9186,4.0,7.744449625,108.5990949,9.76,'11111222,11111222,11111222' 
TABS,ioos:station:wmo:42043:1,2007-12-01T02:30:00Z,28.9818,-94.9186,4.0,7.291947614,110.0506109,8.61,'11111222,11111222,11111222' 
TABS,ioos:station:wmo:42043:1,2007-12-01T03:00:00Z,28.9818,-94.9186,4.0,7.007838468,116.5288461,9.19,'11111222,11111222,11111222' 
TABS,ioos:station:wmo:42043:1,2007-12-01T03:30:00Z,28.9818,-94.9186,4.0,6.946401946,110.6529566,8.69,'11111222,11111222,11111222' 
TABS,ioos:station:wmo:42043:1,2007-12-01T04:00:00Z,28.9818,-94.9186,4.0,6.880770306,112.6522596,8.47,'11111222,11111222,11111222' 
TABS,ioos:station:wmo:42043:1,2007-12-01T04:30:00Z,28.9818,-94.9186,4.0,6.398788948,113.6810146,8.0,'11111222,11111222,11111222' 
TABS,ioos:station:wmo:42043:1,2007-12-01T05:00:00Z,28.9818,-94.9186,4.0,6.601128691,116.0607866,8.22,'11111222,11111222,11111222' 
TABS,ioos:station:wmo:42043:1,2007-12-01T05:30:00Z,28.9818,-94.9186,4.0,6.377279984,116.4448723,8.06,'11111222,11111222,11111222' 
TABS,ioos:station:wmo:42043:1,2007-12-01T06:00:00Z,28.9818,-94.9186,4.0,6.024392086,111.1129932,7.78,'11111222,11111222,11111222' 
TABS,ioos:station:wmo:42043:1,2007-12-01T06:30:00Z,28.9818,-94.9186,4.0,5.731326199,114.8662716,7.15,'11111222,11111222,11111222' 
TABS,ioos:station:wmo:42043:1,2007-12-01T07:00:00Z,28.9818,-94.9186,4.0,5.264570258,113.9849544,6.63,'11111222,11111222,11111222' 
TABS,ioos:station:wmo:42043:1,2007-12-01T07:30:00Z,28.9818,-94.9186,4.0,5.597722751,112.8091969,6.74,'11111222,11111222,11111222' 
TABS,ioos:station:wmo:42043:1,2007-12-01T08:00:00Z,28.9818,-94.9186,4.0,5.717621883,107.9282988,7.03,'11111222,11111222,11111222' 
TABS,ioos:station:wmo:42043:1,2007-12-01T08:30:00Z,28.9818,-94.9186,4.0,6.103982307,112.2375456,7.31,'11111222,11111222,11111222' 
TABS,ioos:station:wmo:42043:1,2007-12-01T09:00:00Z,28.9818,-94.9186,4.0,6.62788805,116.1401465,8.25,'11111222,11111222,11111222' 
TABS,ioos:station:wmo:42043:1,2007-12-01T09:30:00Z,28.9818,-94.9186,4.0,6.391509994,117.4875136,7.96,'11111222,11111222,11111222' 
TABS,ioos:station:wmo:42043:1,2007-12-01T10:00:00Z,28.9818,-94.9186,4.0,6.191897932,120.0436448,7.91,'11111222,11111222,11111222' 
TABS,ioos:station:wmo:42043:1,2007-12-01T10:30:00Z,28.9818,-94.9186,4.0,6.156914812,121.315216,7.87,'11111222,11111222,11111222' 
TABS,ioos:station:wmo:42043:1,2007-12-01T11:00:00Z,28.9818,-94.9186,4.0,6.59898477,127.8600859,8.42,'11111222,11111222,11111222' 
TABS,ioos:station:wmo:42043:1,2007-12-01T11:30:00Z,28.9818,-94.9186,4.0,6.50175361,130.0089941,8.3,'11111222,11111222,11111222' 
TABS,ioos:station:wmo:42043:1,2007-12-01T12:00:00Z,28.9818,-94.9186,4.0,5.900381344,131.6338629,7.19,'11111222,11111222,11111222' 
TABS,ioos:station:wmo:42043:1,2007-12-01T12:30:00Z,28.9818,-94.9186,4.0,5.053197008,132.5943508,6.13,'11111222,11111222,11111222' 
TABS,ioos:station:wmo:42043:1,2007-12-01T13:00:00Z,28.9818,-94.9186,4.0,4.562028058,127.0711807,5.56,'11111222,11111222,11111222' 
TABS,ioos:station:wmo:42043:1,2007-12-01T13:30:00Z,28.9818,-94.9186,4.0,4.363576515,119.9732414,5.22,'11111222,11111222,11111222' 
TABS,ioos:station:wmo:42043:1,2007-12-01T14:00:00Z,28.9818,-94.9186,4.0,4.841094917,129.9725877,6.08,'11111222,11111222,11111222' 
TABS,ioos:station:wmo:42043:1,2007-12-01T14:30:00Z,28.9818,-94.9186,4.0,4.112091925,137.464185,4.85,'11111222,11111222,11111222' 
TABS,ioos:station:wmo:42043:1,2007-12-01T15:00:00Z,28.9818,-94.9186,4.0,4.348712453,135.0934793,5.22,'11111222,11111222,11111222' 
TABS,ioos:station:wmo:42043:1,2007-12-01T15:30:00Z,28.9818,-94.9186,4.0,5.438014343,141.5708587,6.72,'11111222,11111222,11111222' 
TABS,ioos:station:wmo:42043:1,2007-12-01T16:00:00Z,28.9818,-94.9186,4.0,5.98294242,135.948384,8.05,'11111222,11111222,11111222' 
TABS,ioos:station:wmo:42043:1,2007-12-01T16:30:00Z,28.9818,-94.9186,4.0,5.320244355,130.4264051,6.65,'11111222,11111222,11111222' 
TABS,ioos:station:wmo:42043:1,2007-12-01T17:00:00Z,28.9818,-94.9186,4.0,4.639935344,128.5251442,5.71,'11111222,11111222,11111222' 
TABS,ioos:station:wmo:42043:1,2007-12-01T17:30:00Z,28.9818,-94.9186,4.0,4.329803691,136.8720563,5.07,'11111222,11111222,11111222' 
TABS,ioos:station:wmo:42043:1,2007-12-01T18:00:00Z,28.9818,-94.9186,4.0,3.8711497,139.1903136,4.67,'11111222,11111222,11111222' 
TABS,ioos:station:wmo:42043:1,2007-12-01T18:30:00Z,28.9818,-94.9186,4.0,3.684033116,134.8903434,4.11,'11111222,11111222,11111222' 
TABS,ioos:station:wmo:42043:1,2007-12-01T19:00:00Z,28.9818,-94.9186,4.0,3.82800209,143.070529,4.39,'11111222,11111222,11111222' 
TABS,ioos:station:wmo:42043:1,2007-12-01T19:30:00Z,28.9818,-94.9186,4.0,4.073327878,144.5934275,4.73,'11111222,11111222,11111222' 
TABS,ioos:station:wmo:42043:1,2007-12-01T20:00:00Z,28.9818,-94.9186,4.0,4.207433897,146.5368348,5.04,'11111222,11111222,11111222' 
TABS,ioos:station:wmo:42043:1,2007-12-01T20:30:00Z,28.9818,-94.9186,4.0,4.188197703,148.4734423,5.01,'11111222,11111222,11111222' 
TABS,ioos:station:wmo:42043:1,2007-12-01T21:00:00Z,28.9818,-94.9186,4.0,3.979145637,149.826761,4.67,'11111222,11111222,11111222' 
TABS,ioos:station:wmo:42043:1,2007-12-01T21:30:00Z,28.9818,-94.9186,4.0,4.017076051,152.0955897,4.8,'11111222,11111222,11111222' 
TABS,ioos:station:wmo:42043:1,2007-12-01T22:00:00Z,28.9818,-94.9186,4.0,4.08823923,154.5007725,5.11,'11111222,11111222,11111222' 
TABS,ioos:station:wmo:42043:1,2007-12-01T22:30:00Z,28.9818,-94.9186,4.0,3.31090622,161.5105811,4.14,'11111222,11111222,11111222' 
TABS,ioos:station:wmo:42043:1,2007-12-01T23:00:00Z,28.9818,-94.9186,4.0,3.092781919,155.7556279,3.85,'11111222,11111222,11111222' 
TABS,ioos:station:wmo:42043:1,2007-12-01T23:30:00Z,28.9818,-94.9186,4.0,4.289731926,159.9600947,5.13,'11111222,11111222,11111222' 
TABS,ioos:station:wmo:42043:1,2007-12-02T00:00:00Z,28.9818,-94.9186,4.0,4.722975757,164.9047249,5.74,'11111222,11111222,11111222' 
TABS,ioos:station:wmo:42043:1,2007-12-02T00:30:00Z,28.9818,-94.9186,4.0,4.667676081,162.0311127,5.48,'11111222,11111222,11111222' 
TABS,ioos:station:wmo:42043:1,2007-12-02T01:00:00Z,28.9818,-94.9186,4.0,4.235575522,162.9770849,5.19,'11111222,11111222,11111222' 
TABS,ioos:station:wmo:42043:1,2007-12-02T01:30:00Z,28.9818,-94.9186,4.0,4.080441153,162.8975215,4.92,'11111222,11111222,11111222' 
TABS,ioos:station:wmo:42043:1,2007-12-02T02:00:00Z,28.9818,-94.9186,4.0,4.025580703,161.6103131,4.83,'11111222,11111222,11111222' 
TABS,ioos:station:wmo:42043:1,2007-12-02T02:30:00Z,28.9818,-94.9186,4.0,3.632258251,158.5210633,4.39,'11111222,11111222,11111222' 
TABS,ioos:station:wmo:42043:1,2007-12-02T03:00:00Z,28.9818,-94.9186,4.0,3.67887211,160.1369045,4.53,'11111222,11111222,11111222' 
TABS,ioos:station:wmo:42043:1,2007-12-02T03:30:00Z,28.9818,-94.9186,4.0,3.641112467,154.6316396,4.24,'11111222,11111222,11111222' 
TABS,ioos:station:wmo:42043:1,2007-12-02T04:00:00Z,28.9818,-94.9186,4.0,4.051530575,160.5366878,4.83,'11111222,11111222,11111222' 
TABS,ioos:station:wmo:42043:1,2007-12-02T04:30:00Z,28.9818,-94.9186,4.0,4.038341244,165.5166555,4.82,'11111222,11111222,11111222' 
TABS,ioos:station:wmo:42043:1,2007-12-02T05:00:00Z,28.9818,-94.9186,4.0,4.625462139,166.6249585,5.52,'11111222,11111222,11111222' 
TABS,ioos:station:wmo:42043:1,2007-12-02T05:30:00Z,28.9818,-94.9186,4.0,4.013601874,171.5471107,5.01,'11111222,11111222,11111222' 
TABS,ioos:station:wmo:42043:1,2007-12-02T06:00:00Z,28.9818,-94.9186,4.0,3.213985065,182.8537066,3.98,'11111222,11111222,11111222' 
TABS,ioos:station:wmo:42043:1,2007-12-02T06:30:00Z,28.9818,-94.9186,4.0,3.314890647,176.8875011,4.18,'11111222,11111222,11111222' 
TABS,ioos:station:wmo:42043:1,2007-12-02T07:00:00Z,28.9818,-94.9186,4.0,4.09444746,172.5627868,5.07,'11111222,11111222,11111222' 
TABS,ioos:station:wmo:42043:1,2007-12-02T07:30:00Z,28.9818,-94.9186,4.0,2.993409427,164.8962143,3.75,'11111222,11111222,11111222' 
TABS,ioos:station:wmo:42043:1,2007-12-02T08:00:00Z,28.9818,-94.9186,4.0,2.150372061,158.4462409,2.8,'11111222,11111222,11111222' 
TABS,ioos:station:wmo:42043:1,2007-12-02T08:30:00Z,28.9818,-94.9186,4.0,2.953675676,168.0816087,3.67,'11111222,11111222,11111222' 
TABS,ioos:station:wmo:42043:1,2007-12-02T09:00:00Z,28.9818,-94.9186,4.0,3.052867504,158.4776607,4.06,'11111222,11111222,11111222' 
TABS,ioos:station:wmo:42043:1,2007-12-02T09:30:00Z,28.9818,-94.9186,4.0,2.981040087,159.3767273,3.63,'11111222,11111222,11111222' 
TABS,ioos:station:wmo:42043:1,2007-12-02T10:00:00Z,28.9818,-94.9186,4.0,3.675758425,174.692896,4.47,'11111222,11111222,11111222' 
TABS,ioos:station:wmo:42043:1,2007-12-02T10:30:00Z,28.9818,-94.9186,4.0,3.704119329,171.1482271,4.52,'11111222,11111222,11111222' 
TABS,ioos:station:wmo:42043:1,2007-12-02T11:00:00Z,28.9818,-94.9186,4.0,3.036593486,183.7766232,3.73,'11111222,11111222,11111222' 
TABS,ioos:station:wmo:42043:1,2007-12-02T11:30:00Z,28.9818,-94.9186,4.0,3.424733566,176.98743,4.49,'11111222,11111222,11111222' 
TABS,ioos:station:wmo:42043:1,2007-12-02T12:00:00Z,28.9818,-94.9186,4.0,3.401190968,181.5165058,4.1,'11111222,11111222,11111222' 
TABS,ioos:station:wmo:42043:1,2007-12-02T12:30:00Z,28.9818,-94.9186,4.0,3.520184654,172.4916304,4.26,'11111222,11111222,11111222' 
TABS,ioos:station:wmo:42043:1,2007-12-02T13:00:00Z,28.9818,-94.9186,4.0,2.873412605,177.2075146,3.62,'11111222,11111222,11111222' 
TABS,ioos:station:wmo:42043:1,2007-12-02T13:30:00Z,28.9818,-94.9186,4.0,4.14204056,178.2016628,4.86,'11111222,11111222,11111222' 
TABS,ioos:station:wmo:42043:1,2007-12-02T14:00:00Z,28.9818,-94.9186,4.0,4.140881549,175.8455961,5.04,'11111222,11111222,11111222' 
TABS,ioos:station:wmo:42043:1,2007-12-02T14:30:00Z,28.9818,-94.9186,4.0,3.72507718,172.1311533,4.59,'11111222,11111222,11111222' 
TABS,ioos:station:wmo:42043:1,2007-12-02T15:00:00Z,28.9818,-94.9186,4.0,3.576772288,176.4738458,4.53,'11111222,11111222,11111222' 
TABS,ioos:station:wmo:42043:1,2007-12-02T15:30:00Z,28.9818,-94.9186,4.0,3.340553846,173.6410928,4.19,'11111222,11111222,11111222' 
TABS,ioos:station:wmo:42043:1,2007-12-02T16:00:00Z,28.9818,-94.9186,4.0,3.200390601,179.1050388,3.92,'11111222,11111222,11111222' 
TABS,ioos:station:wmo:42043:1,2007-12-02T16:30:00Z,28.9818,-94.9186,4.0,1.916063673,191.1341836,2.37,'11111222,11111222,11111222' 
TABS,ioos:station:wmo:42043:1,2007-12-02T17:00:00Z,28.9818,-94.9186,4.0,2.455890877,176.0309563,3.11,'11111222,11111222,11111222' 
TABS,ioos:station:wmo:42043:1,2007-12-02T17:30:00Z,28.9818,-94.9186,4.0,0.441814441,264.8055832,0.94,'11111222,11111222,11111222' 
TABS,ioos:station:wmo:42043:1,2007-12-02T18:00:00Z,28.9818,-94.9186,4.0,0.855862138,300.1599903,1.31,'11111222,11111222,11111222' 
TABS,ioos:station:wmo:42043:1,2007-12-02T18:30:00Z,28.9818,-94.9186,4.0,1.383618445,184.1448245,1.86,'11111222,11111222,11111222' 
TABS,ioos:station:wmo:42043:1,2007-12-02T19:00:00Z,28.9818,-94.9186,4.0,0.991614845,248.0913464,1.67,'11111222,11111222,11111222' 
TABS,ioos:station:wmo:42043:1,2007-12-02T19:30:00Z,28.9818,-94.9186,4.0,0.834865259,288.8689553,1.61,'11111222,11111222,11111222' 
TABS,ioos:station:wmo:42043:1,2007-12-02T20:00:00Z,28.9818,-94.9186,4.0,0.609261848,336.8012533,1.34,'11111222,11111222,11111222' 
TABS,ioos:station:wmo:42043:1,2007-12-02T20:30:00Z,28.9818,-94.9186,4.0,0.692964646,135.0003157,1.31,'11111222,11111222,11111222' 
TABS,ioos:station:wmo:42043:1,2007-12-02T21:00:00Z,28.9818,-94.9186,4.0,1.856475155,152.0548706,2.47,'11111222,11111222,11111222' 
TABS,ioos:station:wmo:42043:1,2007-12-02T21:30:00Z,28.9818,-94.9186,4.0,3.153173005,154.2478711,3.93,'11111222,11111222,11111222' 
TABS,ioos:station:wmo:42043:1,2007-12-02T22:00:00Z,28.9818,-94.9186,4.0,3.384154252,155.9346352,4.15,'11111222,11111222,11111222' 
TABS,ioos:station:wmo:42043:1,2007-12-02T22:30:00Z,28.9818,-94.9186,4.0,1.600562401,162.9238401,2.08,'11111222,11111222,11111222' 
TABS,ioos:station:wmo:42043:1,2007-12-02T23:00:00Z,28.9818,-94.9186,4.0,1.017889974,169.2422685,1.48,'11111222,11111222,11111222' 
TABS,ioos:station:wmo:42043:1,2007-12-02T23:30:00Z,28.9818,-94.9186,4.0,1.580284784,173.4598399,2.09,'11111222,11111222,11111222' 
TABS,ioos:station:wmo:42043:1,2007-12-03T00:00:00Z,28.9818,-94.9186,4.0,1.742899882,160.2137526,2.53,'11111222,11111222,11111222' 
TABS,ioos:station:wmo:42043:1,2007-12-03T00:30:00Z,28.9818,-94.9186,4.0,1.483846353,145.9889411,2.05,'11111222,11111222,11111222' 
TABS,ioos:station:wmo:42043:1,2007-12-03T01:00:00Z,28.9818,-94.9186,4.0,1.103856875,160.4162625,1.6,'11111222,11111222,11111222' 
TABS,ioos:station:wmo:42043:1,2007-12-03T01:30:00Z,28.9818,-94.9186,4.0,1.043551628,161.5653047,1.61,'11111222,11111222,11111222' 
TABS,ioos:station:wmo:42043:1,2007-12-03T02:00:00Z,28.9818,-94.9186,4.0,2.252820454,353.8843003,4.51,'11111222,11111222,11111222' 
TABS,ioos:station:wmo:42043:1,2007-12-03T02:30:00Z,28.9818,-94.9186,4.0,2.376089224,175.8974231,3.74,'11111222,11111222,11111222' 
TABS,ioos:station:wmo:42043:1,2007-12-03T03:00:00Z,28.9818,-94.9186,4.0,0.925742945,206.2884111,1.56,'11111222,11111222,11111222' 
TABS,ioos:station:wmo:42043:1,2007-12-03T03:30:00Z,28.9818,-94.9186,4.0,1.110180166,352.2346417,2.15,'11111222,11111222,11111222' 
TABS,ioos:station:wmo:42043:1,2007-12-03T04:00:00Z,28.9818,-94.9186,4.0,1.996496932,47.84181555,2.57,'11111222,11111222,11111222' 
TABS,ioos:station:wmo:42043:1,2007-12-03T04:30:00Z,28.9818,-94.9186,4.0,1.19507322,65.79375064,1.93,'11111222,11111222,11111222' 
TABS,ioos:station:wmo:42043:1,2007-12-03T05:00:00Z,28.9818,-94.9186,4.0,6.155485359,10.10480228,13.08,'11111222,11111222,11111222' 
TABS,ioos:station:wmo:42043:1,2007-12-03T05:30:00Z,28.9818,-94.9186,4.0,10.40000481,9.742859587,13.28,'11111222,11111222,11111222' 
TABS,ioos:station:wmo:42043:1,2007-12-03T06:00:00Z,28.9818,-94.9186,4.0,10.41961612,9.389769502,13.55,'11111222,11111222,11111222' 
TABS,ioos:station:wmo:42043:1,2007-12-03T06:30:00Z,28.9818,-94.9186,4.0,10.67844558,16.09255109,13.69,'11111222,11111222,11111222' 
TABS,ioos:station:wmo:42043:1,2007-12-03T07:00:00Z,28.9818,-94.9186,4.0,10.88384583,19.6500265,13.75,'11111222,11111222,11111222' 
TABS,ioos:station:wmo:42043:1,2007-12-03T07:30:00Z,28.9818,-94.9186,4.0,11.25936055,20.59152202,15.22,'11111222,11111222,11111222' 
TABS,ioos:station:wmo:42043:1,2007-12-03T08:00:00Z,28.9818,-94.9186,4.0,9.711436557,13.57810268,12.95,'11111222,11111222,11111222' 
TABS,ioos:station:wmo:42043:1,2007-12-03T08:30:00Z,28.9818,-94.9186,4.0,11.45253247,14.04813395,13.92,'11111222,11111222,11111222' 
TABS,ioos:station:wmo:42043:1,2007-12-03T09:00:00Z,28.9818,-94.9186,4.0,11.7958001,17.00605736,14.45,'11111222,11111222,11111222' 
TABS,ioos:station:wmo:42043:1,2007-12-03T09:30:00Z,28.9818,-94.9186,4.0,10.89844943,23.29496897,13.96,'11111222,11111222,11111222' 
TABS,ioos:station:wmo:42043:1,2007-12-03T10:00:00Z,28.9818,-94.9186,4.0,12.32325038,22.92360185,15.0,'11111222,11111222,11111222' 
TABS,ioos:station:wmo:42043:1,2007-12-03T10:30:00Z,28.9818,-94.9186,4.0,11.60657141,23.67151135,14.18,'11111222,11111222,11111222' 
TABS,ioos:station:wmo:42043:1,2007-12-03T11:00:00Z,28.9818,-94.9186,4.0,12.03372345,19.26282694,14.89,'11111222,11111222,11111222' 
TABS,ioos:station:wmo:42043:1,2007-12-03T11:30:00Z,28.9818,-94.9186,4.0,12.10010331,27.83545331,15.77,'11111222,11111222,11111222' 
TABS,ioos:station:wmo:42043:1,2007-12-03T12:00:00Z,28.9818,-94.9186,4.0,11.8321976,23.5098849,14.83,'11111222,11111222,11111222' 
TABS,ioos:station:wmo:42043:1,2007-12-03T12:30:00Z,28.9818,-94.9186,4.0,12.26955989,19.71953299,15.15,'11111222,11111222,11111222' 
TABS,ioos:station:wmo:42043:1,2007-12-03T13:00:00Z,28.9818,-94.9186,4.0,11.70563112,27.63744143,14.63,'11111222,11111222,11111222' 
TABS,ioos:station:wmo:42043:1,2007-12-03T13:30:00Z,28.9818,-94.9186,4.0,12.28192167,27.44104571,14.97,'11111222,11111222,11111222' 
TABS,ioos:station:wmo:42043:1,2007-12-03T14:00:00Z,28.9818,-94.9186,4.0,11.90969353,16.48702853,14.92,'11111222,11111222,11111222' 
TABS,ioos:station:wmo:42043:1,2007-12-03T14:30:00Z,28.9818,-94.9186,4.0,11.56228351,19.18689246,15.76,'11111222,11111222,11111222' 
TABS,ioos:station:wmo:42043:1,2007-12-03T15:00:00Z,28.9818,-94.9186,4.0,11.94628394,25.74969524,14.27,'11111222,11111222,11111222' 
TABS,ioos:station:wmo:42043:1,2007-12-03T15:30:00Z,28.9818,-94.9186,4.0,10.72471911,25.99136343,13.78,'11111222,11111222,11111222' 
TABS,ioos:station:wmo:42043:1,2007-12-03T16:00:00Z,28.9818,-94.9186,4.0,10.53271095,19.63893087,13.11,'11111222,11111222,11111222' 
TABS,ioos:station:wmo:42043:1,2007-12-03T16:30:00Z,28.9818,-94.9186,4.0,9.413872742,26.70087251,11.61,'11111222,11111222,11111222' 
TABS,ioos:station:wmo:42043:1,2007-12-03T17:00:00Z,28.9818,-94.9186,4.0,8.481249908,18.56287322,10.77,'11111222,11111222,11111222' 
TABS,ioos:station:wmo:42043:1,2007-12-03T17:30:00Z,28.9818,-94.9186,4.0,8.692295439,19.76885047,11.21,'11111222,11111222,11111222' 
TABS,ioos:station:wmo:42043:1,2007-12-03T18:00:00Z,28.9818,-94.9186,4.0,8.561944873,9.27506533,10.72,'11111222,11111222,11111222' 
TABS,ioos:station:wmo:42043:1,2007-12-03T18:30:00Z,28.9818,-94.9186,4.0,8.393098355,12.31383987,11.99,'11111222,11111222,11111222' 
TABS,ioos:station:wmo:42043:1,2007-12-03T19:00:00Z,28.9818,-94.9186,4.0,7.79980128,6.477871614,9.97,'11111222,11111222,11111222' 
TABS,ioos:station:wmo:42043:1,2007-12-03T19:30:00Z,28.9818,-94.9186,4.0,8.540784507,6.25106716,10.98,'11111222,11111222,11111222' 
TABS,ioos:station:wmo:42043:1,2007-12-03T20:00:00Z,28.9818,-94.9186,4.0,8.620029002,12.05273737,11.19,'11111222,11111222,11111222' 
TABS,ioos:station:wmo:42043:1,2007-12-03T20:30:00Z,28.9818,-94.9186,4.0,8.297981682,7.33889752,10.21,'11111222,11111222,11111222' 
TABS,ioos:station:wmo:42043:1,2007-12-03T21:00:00Z,28.9818,-94.9186,4.0,7.521123586,0.990174125,9.58,'11111222,11111222,11111222' 
TABS,ioos:station:wmo:42043:1,2007-12-03T21:30:00Z,28.9818,-94.9186,4.0,7.166344954,9.882697037,9.77,'11111222,11111222,11111222' 
TABS,ioos:station:wmo:42043:1,2007-12-03T22:00:00Z,28.9818,-94.9186,4.0,8.105732539,14.4303087,10.48,'11111222,11111222,11111222' 
TABS,ioos:station:wmo:42043:1,2007-12-03T22:30:00Z,28.9818,-94.9186,4.0,7.881909667,11.26692699,10.17,'11111222,11111222,11111222' 
TABS,ioos:station:wmo:42043:1,2007-12-03T23:00:00Z,28.9818,-94.9186,4.0,7.917095427,3.765715957,10.38,'11111222,11111222,11111222' 
TABS,ioos:station:wmo:42043:1,2007-12-03T23:30:00Z,28.9818,-94.9186,4.0,8.131082339,6.425563586,10.67,'11111222,11111222,11111222' 
TABS,ioos:station:wmo:42043:1,2007-12-04T00:00:00Z,28.9818,-94.9186,4.0,8.570472566,359.3981071,10.73,'11111222,11144222,11111222' 
TABS,ioos:station:wmo:42043:1,2007-12-04T00:30:00Z,28.9818,-94.9186,4.0,8.898994325,357.4235453,11.16,'11111222,11111222,11111222' 
TABS,ioos:station:wmo:42043:1,2007-12-04T01:00:00Z,28.9818,-94.9186,4.0,8.65020809,359.6023695,12.33,'11111222,11144222,11111222' 
TABS,ioos:station:wmo:42043:1,2007-12-04T01:30:00Z,28.9818,-94.9186,4.0,8.98623948,3.444867948,11.26,'11111222,11111222,11111222' 
TABS,ioos:station:wmo:42043:1,2007-12-04T02:00:00Z,28.9818,-94.9186,4.0,8.411718017,18.21929911,11.13,'11111222,11111222,11111222' 
TABS,ioos:station:wmo:42043:1,2007-12-04T02:30:00Z,28.9818,-94.9186,4.0,7.786770833,17.41083658,9.62,'11111222,11111222,11111222' 
TABS,ioos:station:wmo:42043:1,2007-12-04T03:00:00Z,28.9818,-94.9186,4.0,7.571538813,22.60213873,9.76,'11111222,11111222,11111222' 
TABS,ioos:station:wmo:42043:1,2007-12-04T03:30:00Z,28.9818,-94.9186,4.0,8.295070825,22.01919624,11.28,'11111222,11111222,11111222' 
TABS,ioos:station:wmo:42043:1,2007-12-04T04:00:00Z,28.9818,-94.9186,4.0,7.276771262,25.82529381,9.39,'11111222,11111222,11111222' 
TABS,ioos:station:wmo:42043:1,2007-12-04T04:30:00Z,28.9818,-94.9186,4.0,7.555640277,28.97330607,9.61,'11111222,11111222,11111222' 
TABS,ioos:station:wmo:42043:1,2007-12-04T05:00:00Z,28.9818,-94.9186,4.0,7.241056553,25.7862569,9.59,'11111222,11111222,11111222' 
TABS,ioos:station:wmo:42043:1,2007-12-04T05:30:00Z,28.9818,-94.9186,4.0,6.744627492,37.65116568,8.87,'11111222,11111222,11111222' 
TABS,ioos:station:wmo:42043:1,2007-12-04T06:00:00Z,28.9818,-94.9186,4.0,6.975077061,30.4985819,8.95,'11111222,11111222,11111222' 
TABS,ioos:station:wmo:42043:1,2007-12-04T06:30:00Z,28.9818,-94.9186,4.0,7.160446913,28.712359,9.34,'11111222,11111222,11111222' 
TABS,ioos:station:wmo:42043:1,2007-12-04T07:00:00Z,28.9818,-94.9186,4.0,5.690166957,40.29518237,8.26,'11111222,11111222,11111222' 
TABS,ioos:station:wmo:42043:1,2007-12-04T07:30:00Z,28.9818,-94.9186,4.0,5.621538935,44.78347536,8.45,'11111222,11111222,11111222' 
TABS,ioos:station:wmo:42043:1,2007-12-04T08:00:00Z,28.9818,-94.9186,4.0,5.711716029,47.48306927,7.59,'11111222,11111222,11111222' 
TABS,ioos:station:wmo:42043:1,2007-12-04T08:30:00Z,28.9818,-94.9186,4.0,5.614267539,40.9552082,7.78,'11111222,11111222,11111222' 
TABS,ioos:station:wmo:42043:1,2007-12-04T09:00:00Z,28.9818,-94.9186,4.0,4.836620721,48.10051702,6.74,'11111222,11111222,11111222' 
TABS,ioos:station:wmo:42043:1,2007-12-04T09:30:00Z,28.9818,-94.9186,4.0,4.72381202,44.31354172,7.3,'11111222,11111222,11111222' 
TABS,ioos:station:wmo:42043:1,2007-12-04T10:00:00Z,28.9818,-94.9186,4.0,4.554843576,46.24504567,6.68,'11111222,11111222,11111222' 
TABS,ioos:station:wmo:42043:1,2007-12-04T10:30:00Z,28.9818,-94.9186,4.0,4.144007722,53.24037687,5.37,'11111222,11111222,11111222' 
TABS,ioos:station:wmo:42043:1,2007-12-04T11:00:00Z,28.9818,-94.9186,4.0,3.483102066,47.79238015,5.57,'11111222,11111222,11111222' 
TABS,ioos:station:wmo:42043:1,2007-12-04T11:30:00Z,28.9818,-94.9186,4.0,3.161850724,55.95777939,5.3,'11111222,11111222,11111222' 
TABS,ioos:station:wmo:42043:1,2007-12-04T12:00:00Z,28.9818,-94.9186,4.0,2.395078287,41.27563505,3.54,'11111222,11111222,11111222' 
TABS,ioos:station:wmo:42043:1,2007-12-04T12:30:00Z,28.9818,-94.9186,4.0,1.32740348,83.94540135,2.94,'11111222,11111222,11111222' 
TABS,ioos:station:wmo:42043:1,2007-12-04T13:00:00Z,28.9818,-94.9186,4.0,1.154339638,109.2201494,2.4,'11111222,11111222,11111222' 
TABS,ioos:station:wmo:42043:1,2007-12-04T13:30:00Z,28.9818,-94.9186,4.0,1.323064624,3.900274163,2.45,'11111222,11111222,11111222' 
TABS,ioos:station:wmo:42043:1,2007-12-04T14:00:00Z,28.9818,-94.9186,4.0,1.428005602,37.03009255,2.64,'11111222,11111222,11111222' 
TABS,ioos:station:wmo:42043:1,2007-12-04T14:30:00Z,28.9818,-94.9186,4.0,1.747712791,22.89699912,3.13,'11111222,11111222,11111222' 
TABS,ioos:station:wmo:42043:1,2007-12-04T15:00:00Z,28.9818,-94.9186,4.0,0.678969808,80.67600911,1.79,'11111222,11111222,11111222' 
TABS,ioos:station:wmo:42043:1,2007-12-04T15:30:00Z,28.9818,-94.9186,4.0,0.75,16.25995623,2.03,'11111222,11111222,11111222' 
TABS,ioos:station:wmo:42043:1,2007-12-04T16:00:00Z,28.9818,-94.9186,4.0,0.70837843,288.9464604,1.78,'11111222,11111222,11111222' 
TABS,ioos:station:wmo:42043:1,2007-12-04T16:30:00Z,28.9818,-94.9186,4.0,0.761577311,293.1985363,1.94,'11111222,11111222,11111222' 
TABS,ioos:station:wmo:42043:1,2007-12-04T17:00:00Z,28.9818,-94.9186,4.0,1.954507611,295.7783706,3.37,'11111222,11111222,11111222' 
TABS,ioos:station:wmo:42043:1,2007-12-04T17:30:00Z,28.9818,-94.9186,4.0,2.55472112,331.7294794,3.8,'11111222,11111222,11111222' 
TABS,ioos:station:wmo:42043:1,2007-12-04T18:00:00Z,28.9818,-94.9186,4.0,2.215784286,317.7435933,3.93,'11111222,11111222,11111222' 
TABS,ioos:station:wmo:42043:1,2007-12-04T18:30:00Z,28.9818,-94.9186,4.0,2.065260274,319.9101445,3.25,'11111222,11111222,11111222' 